Orbital Elements at Epoch 2459200.5 (2020-Dec-17.0) TDB
Reference: JPL 14 (heliocentric ecliptic J2000)
Element | Value | Uncertainty (1-sigma) | Units |
e | .139775656320246 | 4.08e-08 | |
a | 2.260264105667349 | 1.2351e-08 | au |
q | 1.944334206840602 | 9.1562e-08 | au |
i | 7.045929525469093 | 6.0452e-06 | deg |
node | 45.58312500828725 | 4.0696e-05 | deg |
peri | 249.0583460798771 | 4.7209e-05 | deg |
M | 149.8826637579902 | 2.2261e-05 | deg |
tp | 2458683.743305740621 (2019-Jul-19.24330574) | 7.6995e-05 | TDB |
period | 1241.186974323833 3.40 | 1.0173e-05 2.785e-08 | d yr |
n | .290044938794269 | 2.3773e-09 | deg/d |
Q | 2.576194004494097 | 1.4077e-08 | au |
|
| | Orbit Determination Parameters
Additional Information
|